Showing default

PUNCH-WFI02, 63181

Orbit data source: Space-Track

PUNCH-WFI02, 63181 is an American payload satellite in SSO that was launched on Wed, 12 Mar 2025 UTC via an FALCON 9 launch vehicle from the Air Force Western Test Range (AFWTR). Payload-class satellites include a variety of spacecraft equipped with specific instruments for various scientific and technological missions. These include communications satellites like Starlink; space stations such as the ISS; scientific satellites like the Hubble; Earth observation satellites from companies like Planet Labs, Umbra, and HawkEye 360; GPS; miniature CubeSats for education and research; and military/defense satellites.

Loading next visibility...
Identifier
63181, 2025-047D
Orbit
SSO
Country
Flag of USUS
Related business
Manufacturer
SWRI
Mission
Operational Civil Astronomy
Bus & Motor
PUNCH, Unknown motor
Mass
64 kg wet, 64 kg dry
Launch date (UTC)
2025-03-12 (11 months ago)
Launch vehicle
FALCON 9
Launch site
Air Force Western Test Range (AFWTR)
Object type
Payload
Rocket body
Debris
Shape & HBR
Box + 1 Pan, 1.9 m
Radar Cross Section
0.625 m², Medium (>0.1 m² and < 1m²)

Expand to show TLE details & history
Last TLE update: 7 hours ago

TLE from 7 hours ago
0 PUNCH-WFI02
1 63181U 25047D   26035.48063397  .00001055  00000-0  16736-3 0  9990
2 63181  97.9534 223.0087 0008253 245.6501 114.3846 14.74159840 48508
Epoch: 2026-02-04T11:32Z
TLE epoch observation values (Epoch: 2026-02-04T11:32:06.775Z)
Latitude
-0.00009°
Longitude
-84.66612°
Altitude
653.23 km
Speed
7.53 km/s
True Right ascension
14h 52m 02s
True Declination
0° 00' 00"
Sunlit
Object was in daylight at epoch
Visualization orbit readout
Latitude
Unknown
Longitude
Unknown
Altitude
Unknown
Speed
Unknown
Apparent Right ascension
Unknown
Apparent Declination
Unknown
Sunlit
N/A
Visualization observer readout
Local Sidereal Time
20:15:46
Azimuth
Unknown
Elevation
Unknown
Doppler factor
Unknown
Orbital elements
Apogee altitude
650.667 km
Perigee altitude
639.074 km
Semi-major axis
7,023.008 km
Eccentricity
0.00083
Inclination
97.9534°
RAAN
223.0087°
Arg. of periapsis
245.6501°
True anomaly
114.4707°
Mean anomaly
114.3846°
Eccentric anomaly
114.42765°
Mean motion
3.68772 °/min
Orbital period
97.62 mins
BSTAR
0.00016736
Loading maneuver chart data...
Computing Atmospheric mass density...
Loading historical data...
Loading historical data...
Loading historical data...
Loading historical data...
Loading historical data...
Loading historical data...
Loading historical data...
Other satellites on launch #47 in the year 2025 (2025-03-12 UTC)

Documentation

Showing up to 5 results
|